Location: Arrington
(35.8681°N, 86.7092°W)
Time: 14:38:01
(UTC+00:00)

ATLAS 2AS CENTAUR R/B - Pass Details

Date: 22 February 2020
Orbit: 929 x 1283 km, 63.7° (Epoch: 05 April)

Event Time Altitude Azimuth Distance (km) Brightness Sun altitude
Rises 11:19:52 0° 335° (NNW) 4,173 5.5 -14.2°
Reaches altitude 10° 11:23:14 10° 346° (NNW) 3,158 5.0 -13.5°
Maximum altitude 11:29:34 28° 44° (NE) 2,001 4.6 -12.2°
Drops below altitude 10° 11:35:28 10° 101° (E) 2,933 6.6 -11.0°
Sets 11:38:27 0° 113° (ESE) 3,828 7.2 -10.4°
